GW0781 Weather Reports


Display with metric or nautical units.
time (UTC)temp
F
wind
direction
speed
MPH
gust
MPH
rain 1hr
in
rain 24hr
in
rain mn
in
humidity
%
barometer
mb
20260505102036 43 351 2.0 4.0 0.00 0.00 0.00 79 1018.5
20260505101552 43 352 2.0 4.0 0.00 0.00 0.00 79 1018.6
20260505101036 43 347 1.0 4.0 0.00 0.00 0.00 79 1018.5
20260505100536 43 324 1.0 6.0 0.00 0.00 0.00 79 1018.4
20260505100041 43 352 2.0 6.0 0.00 0.00 0.00 78 1018.4
20260505095536 43 23 2.0 5.0 0.00 0.00 0.00 79 1018.6
20260505095035 43 349 2.0 6.0 0.00 0.00 0.00 79 1018.5
20260505094538 43 311 2.0 6.0 0.00 0.00 0.00 79 1018.4
20260505094039 43 269 3.0 6.0 0.00 0.00 0.00 79 1018.6
20260505093537 43 315 2.0 6.0 0.00 0.00 0.00 79 1018.4
20260505093048 43 339 2.0 9.0 0.00 0.00 0.00 79 1018.4
20260505092537 43 303 3.0 9.0 0.00 0.00 0.00 79 1018.5
20260505092036 43 333 2.0 8.0 0.00 0.00 0.00 79 1018.6
20260505091551 43 302 3.0 6.0 0.00 0.00 0.00 80 1018.5
20260505091036 43 312 3.0 6.0 0.00 0.00 0.00 80 1018.5
20260505090536 43 293 2.0 6.0 0.00 0.00 0.00 80 1018.6
20260505090051 43 317 2.0 6.0 0.00 0.00 0.00 80 1018.6
20260505085537 43 301 2.0 9.0 0.00 0.00 0.00 80 1018.6
20260505085036 43 330 3.0 9.0 0.00 0.00 0.00 80 1018.6
20260505084550 43 280 3.0 9.0 0.00 0.00 0.00 80 1018.5
20260505084035 43 285 4.0 9.0 0.00 0.00 0.00 80 1018.6
20260505083535 43 332 2.0 5.0 0.00 0.00 0.00 81 1018.6
20260505083051 43 339 3.0 5.0 0.00 0.00 0.00 81 1018.6
20260505082536 43 352 2.0 5.0 0.00 0.00 0.00 81 1018.5
20260505082036 43 324 2.0 5.0 0.00 0.00 0.00 81 1018.6
20260505081548 43 329 1.0 4.0 0.00 0.00 0.00 81 1018.5
20260505081036 43 340 2.0 6.0 0.00 0.00 0.00 81 1018.5
20260505080535 43 348 1.0 6.0 0.00 0.00 0.00 81 1018.4
20260505080052 43 355 2.0 6.0 0.00 0.00 0.00 80 1018.4
20260505075538 43 327 2.0 8.0 0.00 0.00 0.00 80 1018.5
20260505075035 43 314 2.0 8.0 0.00 0.00 0.00 80 1018.4
20260505074549 43 335 2.0 4.0 0.00 0.00 0.00 80 1018.4
20260505074035 43 323 2.0 4.0 0.00 0.00 0.00 80 1018.4
20260505073539 43 346 2.0 4.0 0.00 0.00 0.00 80 1018.4
20260505073100 43 325 2.0 4.0 0.00 0.00 0.00 80 1018.5
20260505072541 43 344 1.0 4.0 0.00 0.00 0.00 80 1018.5
20260505072037 43 343 1.0 5.0 0.00 0.00 0.00 80 1018.6
20260505071541 43 350 2.0 5.0 0.00 0.00 0.00 80 1018.6
20260505071037 43 341 2.0 5.0 0.00 0.00 0.00 80 1018.7
20260505070536 43 335 2.0 4.0 0.00 0.00 0.00 79 1018.7
20260505070049 43 343 1.0 4.0 0.00 0.00 0.00 79 1018.6
20260505065536 44 333 2.0 4.0 0.00 0.00 0.00 79 1018.6
20260505065035 44 5 1.0 4.0 0.00 0.00 0.00 79 1018.7
20260505064551 44 352 2.0 4.0 0.00 0.00 0.00 79 1018.8
20260505064035 44 326 1.0 4.0 0.00 0.00 0.00 78 1018.7
20260505063536 44 339 2.0 5.0 0.00 0.00 0.00 78 1018.8
20260505063046 44 9 2.0 5.0 0.00 0.00 0.00 78 1018.8
20260505062534 44 348 2.0 7.0 0.00 0.00 0.00 78 1018.9
20260505062035 44 325 2.0 7.0 0.00 0.00 0.00 78 1018.9
20260505061554 44 333 2.0 7.0 0.00 0.00 0.00 78 1019.0
20260505061036 44 344 2.0 5.0 0.00 0.00 0.00 78 1019.1
20260505060536 44 348 2.0 4.0 0.00 0.00 0.00 78 1019.1
20260505060042 44 342 2.0 4.0 0.00 0.00 0.00 78 1019.1
20260505055536 44 325 2.0 5.0 0.00 0.00 0.00 78 1019.1
20260505055036 44 345 1.0 5.0 0.00 0.00 0.00 78 1019.1
20260505054559 44 328 1.0 6.0 0.00 0.00 0.00 77 1019.1
20260505054036 45 5 2.0 6.0 0.00 0.00 0.00 77 1019.1
20260505053537 45 336 1.0 6.0 0.00 0.00 0.00 77 1019.3
20260505053101 45 263 2.0 6.0 0.00 0.00 0.00 77 1019.2
20260505052535 45 321 2.0 8.0 0.00 0.00 0.00 77 1019.2
20260505052035 45 311 2.0 8.0 0.00 0.00 0.00 77 1019.1
20260505051546 45 352 2.0 8.0 0.00 0.00 0.00 77 1019.3
20260505051036 45 348 2.0 6.0 0.00 0.00 0.00 77 1019.3
20260505050537 45 346 2.0 6.0 0.00 0.00 0.00 78 1019.3
20260505041555 45 336 2.0 7.0 0.00 0.00 0.00 78 1019.5
20260505041036 45 29 2.0 7.0 0.00 0.00 0.00 78 1019.4
20260505040536 45 338 1.0 5.0 0.00 0.00 0.00 78 1019.4
20260505040050 45 342 2.0 5.0 0.00 0.00 0.00 78 1019.4
20260505035537 45 348 2.0 4.0 0.00 0.00 0.00 78 1019.5
20260505035035 45 349 1.0 7.0 0.00 0.00 0.00 78 1019.6
20260505034549 45 9 2.0 7.0 0.00 0.00 0.00 77 1019.7
20260505034044 45 342 2.0 6.0 0.00 0.00 0.00 78 1019.6
20260505033536 45 342 2.0 5.0 0.00 0.00 0.00 77 1019.6
20260505033040 45 344 1.0 4.0 0.00 0.00 0.00 77 1019.7
20260505032535 46 5 1.0 5.0 0.00 0.00 0.00 77 1019.7
20260505032035 46 11 2.0 5.0 0.00 0.00 0.00 77 1019.7
20260505031605 46 326 2.0 4.0 0.00 0.00 0.00 77 1019.8
20260505031035 46 71 2.0 4.0 0.00 0.00 0.00 77 1019.8
20260505030537 46 342 1.0 4.0 0.00 0.00 0.00 77 1019.8
20260505030049 46 61 2.0 4.0 0.00 0.00 0.00 77 1019.9
20260505025536 46 350 2.0 4.0 0.00 0.00 0.00 77 1019.9
20260505025035 46 352 1.0 4.0 0.00 0.00 0.00 77 1020.0
20260505024545 46 339 1.0 4.0 0.00 0.00 0.00 77 1020.0
20260505024038 46 340 1.0 5.0 0.00 0.00 0.00 78 1019.9
20260505023536 46 343 1.0 5.0 0.00 0.00 0.00 77 1020.0
20260505023049 46 352 2.0 5.0 0.00 0.00 0.00 77 1020.0
20260505022536 46 5 1.0 4.0 0.00 0.00 0.00 77 1019.9
20260505022037 46 352 1.0 5.0 0.00 0.00 0.00 78 1020.0
20260505021550 46 24 2.0 5.0 0.00 0.00 0.00 78 1019.9
20260505021036 47 349 2.0 5.0 0.00 0.00 0.00 78 1019.9
20260505020537 47 338 1.0 4.0 0.00 0.00 0.00 78 1019.9
20260505020042 47 29 1.0 4.0 0.00 0.00 0.00 78 1019.9
20260505015537 47 317 1.0 5.0 0.00 0.00 0.00 79 1019.8
20260505015037 47 331 1.0 5.0 0.00 0.00 0.00 79 1019.7
20260505014547 47 317 2.0 5.0 0.00 0.00 0.00 79 1019.8
20260505014035 47 315 2.0 5.0 0.00 0.00 0.00 79 1019.8
20260505013536 47 13 1.0 6.0 0.00 0.00 0.00 79 1019.6
20260505013104 47 37 1.0 6.0 0.00 0.00 0.00 79 1019.7
20260505012535 48 42 1.0 5.0 0.00 0.00 0.00 79 1019.7
20260505012036 48 342 1.0 4.0 0.00 0.00 0.00 78 1019.5
20260505011547 48 348 1.0 5.0 0.00 0.00 0.00 78 1019.6
20260505011037 48 360 2.0 5.0 0.00 0.00 0.00 78 1019.6
20260505010537 48 347 2.0 9.0 0.00 0.00 0.00 77 1019.4
20260505010046 49 5 1.0 9.0 0.00 0.00 0.00 77 1019.3
20260505005536 49 352 1.0 9.0 0.00 0.00 0.00 76 1019.4
20260505005037 49 5 1.0 5.0 0.00 0.00 0.00 75 1019.3
20260505004555 49 352 1.0 4.0 0.00 0.00 0.00 75 1019.2
20260505004037 50 5 1.0 3.0 0.00 0.00 0.00 74 1019.2
20260505003535 50 0 1.0 3.0 0.00 0.00 0.00 73 1019.3
20260505003047 50 0 1.0 3.0 0.00 0.00 0.00 72 1019.3
20260505002538 51 0 1.0 5.0 0.00 0.00 0.00 72 1019.3
20260505002036 51 42 1.0 5.0 0.00 0.00 0.00 71 1019.2
20260505001551 52 40 1.0 5.0 0.00 0.00 0.00 70 1019.2
20260505001035 52 345 1.0 5.0 0.00 0.00 0.00 69 1019.2
20260505000536 52 0 1.0 3.0 0.00 0.00 0.00 68 1019.2
20260505000106 53 132 1.0 4.0 0.00 0.00 0.00 67 1019.2
20260504235536 53 352 1.0 4.0 0.00 0.00 0.00 66 1019.1
20260504235037 54 0 1.0 4.0 0.00 0.00 0.00 66 1019.1
20260504234544 54 352 0.0 4.0 0.00 0.00 0.00 65 1019.1
20260504234038 54 346 1.0 4.0 0.00 0.00 0.00 64 1019.1
20260504233536 55 352 1.0 3.0 0.00 0.00 0.00 63 1019.1
20260504233055 55 5 1.0 4.0 0.00 0.00 0.00 62 1019.1
20260504232536 55 61 1.0 4.0 0.00 0.00 0.00 60 1019.1
20260504232035 56 0 1.0 4.0 0.00 0.00 0.00 60 1019.1
20260504231550 56 0 1.0 5.0 0.00 0.00 0.00 60 1019.1
20260504231036 56 0 1.0 5.0 0.00 0.00 0.00 58 1019.1
20260504230539 56 34 1.0 5.0 0.00 0.00 0.00 58 1019.1
20260504230104 57 0 0.0 5.0 0.00 0.00 0.00 56 1019.0
20260504225536 57 0 1.0 5.0 0.00 0.00 0.00 55 1019.1
20260504225037 57 12 0.0 3.0 0.00 0.00 0.00 54 1019.0
20260504224549 57 19 1.0 3.0 0.00 0.00 0.00 52 1019.1
20260504224035 58 15 0.0 4.0 0.00 0.00 0.00 49 1019.1
20260504223535 58 134 1.0 4.0 0.00 0.00 0.00 43 1019.0
20260504223046 58 263 1.0 5.0 0.00 0.00 0.00 42 1019.1
20260504222536 58 92 1.0 5.0 0.00 0.00 0.00 40 1019.1
20260504222036 59 348 1.0 4.0 0.00 0.00 0.00 42 1019.1
20260504221554 59 326 1.0 4.0 0.00 0.00 0.00 41 1019.1
20260504221037 59 352 1.0 5.0 0.00 0.00 0.00 41 1019.1
20260504220536 59 0 1.0 5.0 0.00 0.00 0.00 40 1019.0
20260504220055 59 42 0.0 5.0 0.00 0.00 0.00 43 1019.1
20260504215536 59 352 1.0 5.0 0.00 0.00 0.00 43 1019.1
20260504215035 58 57 1.0 3.0 0.00 0.00 0.00 46 1019.1
20260504214548 58 0 0.0 3.0 0.00 0.00 0.00 45 1019.2
20260504214036 58 0 0.0 3.0 0.00 0.00 0.00 46 1019.2
20260504213535 58 360 1.0 3.0 0.00 0.00 0.00 45 1019.1
20260504213046 58 329 0.0 5.0 0.00 0.00 0.00 47 1019.1
20260504212539 58 0 1.0 5.0 0.00 0.00 0.00 47 1019.3
20260504212036 59 340 2.0 5.0 0.00 0.00 0.00 47 1019.3
20260504211548 59 330 0.0 4.0 0.00 0.00 0.00 46 1019.3
20260504211035 59 330 1.0 4.0 0.00 0.00 0.00 47 1019.2
20260504210535 60 128 1.0 6.0 0.00 0.00 0.00 46 1019.2
20260504210047 60 0 1.0 6.0 0.00 0.00 0.00 46 1019.3
20260504205537 61 0 1.0 5.0 0.00 0.00 0.00 45 1019.3
20260504205036 61 304 1.0 5.0 0.00 0.00 0.00 45 1019.4
20260504204541 61 328 1.0 5.0 0.00 0.00 0.00 45 1019.3
20260504204037 62 343 2.0 8.0 0.00 0.00 0.00 44 1019.2
20260504203537 62 275 1.0 8.0 0.00 0.00 0.00 45 1019.4
20260504203041 61 47 0.0 3.0 0.00 0.00 0.00 46 1019.3
20260504202536 61 255 1.0 4.0 0.00 0.00 0.00 47 1019.4
20260504202036 61 281 1.0 4.0 0.00 0.00 0.00 45 1019.4
20260504201550 61 216 1.0 3.0 0.00 0.00 0.00 44 1019.5
20260504201036 61 81 1.0 5.0 0.00 0.00 0.00 44 1019.4
20260504200536 62 267 1.0 5.0 0.00 0.00 0.00 44 1019.5
20260504200047 62 19 1.0 5.0 0.00 0.00 0.00 43 1019.7
20260504195535 62 243 1.0 7.0 0.00 0.00 0.00 43 1019.6
20260504195035 62 0 0.0 7.0 0.00 0.00 0.00 44 1019.6
20260504194544 62 214 0.0 3.0 0.00 0.00 0.00 42 1019.7
20260504194035 61 304 1.0 7.0 0.00 0.00 0.00 44 1019.8
20260504193535 61 287 2.0 8.0 0.00 0.00 0.00 45 1019.8
20260504193048 61 246 2.0 8.0 0.00 0.00 0.00 46 1019.7
20260504192536 60 248 1.0 3.0 0.00 0.00 0.00 46 1019.8
20260504192036 60 294 1.0 3.0 0.00 0.00 0.00 46 1019.9
20260504191548 60 0 0.0 4.0 0.00 0.00 0.00 46 1019.9
20260504191036 60 205 1.0 4.0 0.00 0.00 0.00 46 1020.0
20260504190535 60 138 0.0 3.0 0.00 0.00 0.00 45 1020.0
20260504190046 60 334 0.0 2.0 0.00 0.00 0.00 46 1020.0
20260504185535 60 238 0.0 3.0 0.00 0.00 0.00 45 1020.1
20260504185035 61 287 1.0 3.0 0.00 0.00 0.00 44 1020.1
20260504184546 61 0 1.0 3.0 0.00 0.00 0.00 43 1020.1
20260504184035 61 271 1.0 4.0 0.00 0.00 0.00 43 1020.1
20260504183537 61 38 1.0 4.0 0.00 0.00 0.00 46 1020.1
20260504183047 61 0 1.0 4.0 0.00 0.00 0.00 44 1020.3
20260504182536 61 0 1.0 7.0 0.00 0.00 0.00 46 1020.2
20260504182035 60 298 1.0 7.0 0.00 0.00 0.00 50 1020.2
20260504181552 60 296 1.0 7.0 0.00 0.00 0.00 51 1020.1
20260504181035 60 342 1.0 4.0 0.00 0.00 0.00 49 1020.1
20260504180536 59 5 1.0 4.0 0.00 0.00 0.00 52 1020.2
20260504180042 59 246 1.0 4.0 0.00 0.00 0.00 51 1020.3
20260504175535 59 279 1.0 4.0 0.00 0.00 0.00 50 1020.3
20260504175036 59 0 1.0 4.0 0.00 0.00 0.00 50 1020.3
20260504174550 59 0 1.0 4.0 0.00 0.00 0.00 49 1020.3
20260504174037 59 252 1.0 4.0 0.00 0.00 0.00 50 1020.3
20260504173536 59 306 0.0 5.0 0.00 0.00 0.00 49 1020.3
20260504173049 59 216 1.0 5.0 0.00 0.00 0.00 49 1020.4
20260504172535 58 194 1.0 4.0 0.00 0.00 0.00 44 1020.5
20260504172036 58 117 1.0 4.0 0.00 0.00 0.00 46 1020.5
20260504171548 58 249 1.0 3.0 0.00 0.00 0.00 49 1020.7
20260504171036 58 0 1.0 3.0 0.00 0.00 0.00 49 1020.6
20260504170536 58 0 0.0 3.0 0.00 0.00 0.00 51 1020.5
20260504151035 51 73 1.0 5.0 0.00 0.00 0.00 46 1021.1
20260504150536 50 245 1.0 5.0 0.00 0.00 0.00 46 1021.3
20260504141035 46 270 3.0 6.0 0.00 0.00 0.00 44 1021.0
20260504140536 46 277 2.0 6.0 0.00 0.00 0.00 43 1021.1
20260504130539 45 246 2.0 4.0 0.00 0.00 0.00 34 1020.1
20260504110535 42 283 4.0 7.0 0.00 0.00 0.00 31 1019.3